Home   Weather   Bangui   Past weeks
Flag for Central African Republic

Past Weather in Bangui, Central African Republic — Yesterday and Last 2 Weeks

Now
79 °F

Sunny.


Feels Like: 81 °F
Forecast: 85 / 72 °F
Wind: 3 mph from West

Location: Bangui Airport

Current Time: Mar 25, 2019 at 11:01:03 am

Latest Report: Mar 25, 2019 at 10:00 am


Visibility: 10 mi

Pressure: 29.86 "Hg

Humidity: 70%

Dew Point: 68 °F

Location of BanguiLocation

Past Weather in Bangui — Graph

°F

Bangui Temperature Yesterday

Maximum temperature yesterday: 84 °F (at 1:00 pm)
Minimum temperature yesterday: 72 °F (at 12:00 am)
Average temperature yesterday: 77 °F

High & Low Weather Summary for the Past Weeks

 TemperatureHumidityPressure
High102 °F (Mar 19, 3:00 pm)100% (Mar 16, 3:00 am)29.92 "Hg (Mar 16, 3:00 am)
Low70 °F (Mar 15, 6:00 am)17% (Mar 19, 3:00 pm)29.62 "Hg (Mar 21, 4:00 pm)
Average82 °F70%29.77 "Hg
* Reported Mar 10 10:00 am — Mar 25 9:00 am, Bangui. Weather by CustomWeather, © 2019

Note: Actual official high and low records may vary slightly from our data, if they occured in-between our weather recording intervals... More about our weather records

Advertising

Bangui Weather History for the Previous 24 Hours

Scroll right to see more
 ConditionsComfort  
Time TempWeatherWind HumidityBarometerVisibility
9:00 am
Mon, Mar 25
77 °FSunny.5 mph74%29.86 "Hg10 mi
8:00 am72 °FPassing clouds.3 mph78%29.86 "HgN/A
7:00 am72 °FPassing clouds.No wind83%29.86 "HgN/A
6:00 am72 °FScattered clouds.No wind83%29.86 "HgN/A
5:00 am72 °FPassing clouds.No wind88%29.86 "HgN/A
4:00 am73 °FPassing clouds.No wind78%29.89 "HgN/A
3:00 am73 °FThunderstorms. Passing clouds.9 mph74%29.89 "Hg5 mi
2:00 am73 °FThunderstorms. Passing clouds.2 mph83%29.92 "Hg5 mi
1:00 am77 °FPassing clouds.2 mph83%29.92 "HgN/A
12:00 am77 °FPassing clouds.8 mph89%29.89 "HgN/A
11:00 pm
Sun, Mar 24
79 °FPassing clouds.2 mph89%29.86 "HgN/A
10:00 pm79 °FPassing clouds.No wind84%29.89 "HgN/A
9:00 pm79 °FPassing clouds.6 mph79%29.83 "HgN/A
8:00 pm79 °FPassing clouds.6 mph74%29.83 "HgN/A
7:00 pm81 °FPassing clouds.9 mph74%29.80 "HgN/A
6:00 pm81 °FPassing clouds.5 mph79%29.77 "HgN/A
5:00 pm81 °FPartly sunny.7 mph74%29.74 "HgN/A
4:00 pm84 °FPartly sunny.8 mph66%29.71 "HgN/A
3:00 pm84 °FPartly sunny.6 mph66%29.71 "HgN/A
2:00 pm82 °FPassing clouds.7 mph70%29.74 "HgN/A
1:00 pm84 °FPassing clouds.3 mph70%29.77 "HgN/A
12:00 pm82 °FPassing clouds.7 mph74%29.77 "HgN/A
11:00 am79 °FPassing clouds.3 mph79%29.80 "HgN/A
Weather by CustomWeather, © 2019

See weather overview